Location: Borea
(45.6167°N, 23.0167°E)
Time: 11:49:21
(UTC+00:00)

Okean O Rocket - Pass Details

Date: 03 February 2023
Orbit: 621 x 643 km, 98.2° (Epoch: 20 March)

Event Time Altitude Azimuth Distance (km) Brightness Sun altitude
Rises 17:37:11 0° 166° (SSE) 2,906 4.9 -21.3°
Reaches altitude 10° 17:39:22 10° 167° (SSE) 2,007 4.1 -21.7°
Maximum altitude 17:43:44 85° 254° (WSW) 643 1.5 -22.4°
Drops below altitude 10° 17:48:11 10° 346° (NNW) 2,037 4.4 -23.2°
Sets 17:50:25 0° 347° (NNW) 2,954 5.2 -23.6°
